Regional Weather Roundup
Issued by NWS

Home | Current Version | Previous Version | Text Only | Print | Product List | Glossary On
Versions: 1 2 3 4 5 6 7 8 9 10 11 12 13 14 15 16 17 18 19 20 21 22 23 24 25 26 27 28 29 30 31 32 33 34 35 36 37 38 39 40 41 42 43 44 45 46 47 48 49 50
585
ASUS43 KMKX 251121
RWRWI

WISCONSIN REGIONAL WEATHER ROUNDUP
NATIONAL WEATHER SERVICE MILWAUKEE/SULLIVAN WI
600 AM CDT TUE JUL 25 2017

NOTE: "FAIR" INDICATES FEW OR NO CLOUDS BELOW 12,000 FEET WITH NO
SIGNIFICANT WEATHER AND/OR OBSTRUCTIONS TO VISIBILITY.

WIZ001-002-006>008-014>016-023>028-251200-
NORTHWEST WISCONSIN

CITY           SKY/WX    TMP DP  RH WIND       PRES   REMARKS
SUPERIOR ARPT  NOT AVBL
ASHLAND        CLEAR     56  54  93 S6        30.08F
HAYWARD        CLOUDY    62  58  86 S3        30.10S
SIREN          CLOUDY    64  61  89 SE8       30.06F
CUMBERLAND     LGT RAIN  61  59  94 S9        30.08F
RICE LAKE      CLOUDY    63  59  88 E5        30.11F
CHETEK         CLOUDY    62  61  96 E7        30.11S
LADYSMITH      CLOUDY    60  57  90 CALM      30.15R
EAU CLAIRE     CLOUDY    63  58  83 S6        30.10R
MENOMONIE      CLOUDY    62  60  93 CALM      30.11R
NEW RICHMOND   LGT RAIN  63  60  88 SE8       30.07F
OSCEOLA        CLOUDY    64  64 100 SE7       30.08F
$$

WIZ003>005-009-010-017-018-251200-
NORTH CENTRAL WISCONSIN

CITY           SKY/WX    TMP DP  RH WIND       PRES   REMARKS
MANITOWISH WTR MOCLDY    56  56 100 S5        30.14F
ARBOR VITAE    PTCLDY    57  53  87 S5        30.15S
WOODRUFF       PTCLDY    57  53  87 S5        30.15S
RHINELANDER    MOCLDY    53  52  96 CALM      30.17R
EAGLE RIVER    PTCLDY    52  52 100 CALM      30.16S
LAND O LAKES   PTCLDY    48  48 100 CALM      30.19R
PHILLIPS       PTCLDY    59  55  87 S6        30.14R
TOMAHAWK         N/A     52  50  95 CALM      30.17R
MEDFORD        MOCLDY    57  52  84 SE8       30.13F
MERRILL        MOCLDY    49  49 100 CALM      30.18R
$$

WIZ029-030-035-036-043>047-251200-
CENTRAL WISCONSIN

CITY           SKY/WX    TMP DP  RH WIND       PRES   REMARKS
WAUSAU         PTCLDY    55  52  89 CALM      30.16R
MOSINEE        PTCLDY    54  52  94 SE5       30.16S
MARSHFIELD     PTCLDY    56  52  86 SE5       30.14S
STEVENS POINT  CLOUDY    51  51  97 CALM      30.17R
WAUPACA        CLOUDY    54  53  98 CALM      30.17S
WAUTOMA        CLEAR     49  48  97 CALM      30.18R
WISC RAPIDS    PTCLDY    55  52  89 S5        30.16F
CAMP DOUGLAS   CLOUDY    52  51  99 S5        30.14F
$$

WIZ011>013-019>022-031-037>040-048>050-251200-
NORTHEAST WISCONSIN

CITY           SKY/WX    TMP DP  RH WIND       PRES   REMARKS
ANTIGO         MOCLDY    52  51  95 S5        30.18S
SHAWANO        PTCLDY    55  53  93 CALM      30.17S
OCONTO         PTCLDY    50  49  95 CALM      30.17R
STURGEON BAY     N/A     57  50  77 MISG      30.18R
GREEN BAY      CLEAR     52  52 100 W3        30.17R
MANITOWOC      CLEAR     52  50  93 CALM      30.17S
APPLETON       PTCLDY    57  45  62 CALM      30.15R
CLINTONVILLE   PTCLDY   N/A N/A N/A CALM      30.17R
OSHKOSH        PTCLDY    56  50  80 S6        30.16R
$$

WIZ032>034-041-042-053>061-251200-
SOUTHWEST WISCONSIN

CITY           SKY/WX    TMP DP  RH WIND       PRES   REMARKS
LA CROSSE      PTCLDY    65  59  81 S9        30.11R
SPARTA         PTCLDY    58  56  92 CALM      30.14R
VIROQUA        PTCLDY    58  58 100 CALM      30.15S
BOSCOBEL       CLEAR     58  57  97 NE3       30.15R
PRAIRIE DU CHI CLEAR     60  58  91 E3        30.13R
PLATTEVILLE    CLEAR     58  58 100 E5        30.16S
$$

WIZ056-057-062-063-064-067-068-251200-
SOUTH CENTRAL WISCONSIN

CITY           SKY/WX    TMP DP  RH WIND       PRES   REMARKS
REEDSBURG      CLEAR     54  54 100 CALM      30.16S
BARABOO/DELLS  CLEAR     54  51  91 CALM      30.17S
LONE ROCK      CLEAR     57  55  93 E3        30.16R
MINERAL POINT  CLEAR     57  57 100 SE5       30.15F FOG
MADISON        PTCLDY    53  52  96 CALM      30.17R
MIDDLETON      CLEAR     53  53 100 CALM      30.18R
WATERTOWN      CLEAR     52  52 100 CALM      30.17R
MONROE         CLEAR     57  55  94 SE6       30.16S
JANESVILLE     MOCLDY    55  55 100 CALM      30.16F
$$

WIZ051-052-058>065-066-070>072-251200-
SOUTHEAST WISCONSIN

CITY           SKY/WX    TMP DP  RH WIND       PRES   REMARKS
MILWAUKEE      PTCLDY    59  56  89 CALM      30.16F
WAUKESHA       CLEAR     52  52 100 CALM      30.19R
MILWAUKEE/TIMM PTCLDY    54  50  87 CALM      30.18S
RACINE         CLEAR     57  56  96 CALM      30.18F
KENOSHA        CLEAR     54  53  97 CALM      30.18R
FOND DU LAC    CLEAR     52  49  89 SW3       30.17R
SHEBOYGAN      PTCLDY    51  51 100 W5        30.17S
WEST BEND      CLEAR     48  48 100 CALM      30.18R
JUNEAU         CLEAR     52  51  93 CALM      30.20R
$$

LSZ147-162-251200-
LAKE SUPERIOR

STATION/POSITION TIME  TEMP    WIND        PRES    WAVE
                       AIR SEA DIR/SP/G            HT/PER
                 (UTC) (F)     (DEG/KT/KT) (MB)    (FT/S)
W MID LAKE BUOY  1050   55 49  200/  8/  8 1018.9R   0
DEVILS ISLAND    1100   62     160/  8/ 11 1018.2S
SAXON HARBOR     1040   61     160/  1/  3 1017.9F
$$

LMZ867-665-643>646-251200-
LAKE MICHIGAN

STATION/POSITION TIME  TEMP    WIND        PRES    WAVE
                       AIR SEA DIR/SP/G            HT/PER
                 (UTC) (F)     (DEG/KT/KT) (MB)    (FT/S)
CHAMBERS ISLAND  1040   54     130/  2/  3 1020.3F
S GREEN BAY BUOY 1100   66 72  150/  8/  8 1021.1
N MID LAKE BUOY  1050   66 66  130/  2/  4 1022.5R   0
NORTHPORT PIER   1040   57        CALM     1021.3S
KEWAUNEE LAKESHO 1054   54     310/  3/  4 1020.4F
SHEBOYGAN LAKESH 1100   61     240/  4/  4 1021.3S
PORT WASHINGTON  1030   58     270/  4/  4 1022.0F
ATWATER BUOY     1009   63 68  290/  2/  4 1021.6R
MILWAUKEE LAKESH 1100   62     300/  2/  3   N/A
S MID LAKE BUOY  1050   70 71  110/  6/  8 1021.9R   2/ 6
KENOSHA   LAKESH 1100   63     260/  2/  3 1021.7
$$

TC  - TEMPERATURE IN CELSIUS
VSB - VISIBILITY IN STATUTE MILES
WCI - WIND CHILL INDEX
HX  - HEAT INDEX





USA.gov is the U.S. government's official web portal to all federal, state and local government web resources and services.